Regional Weather Roundup
Issued by NWS Wakefield, VA

Home | Current Version | Previous Version | Graphics & Text | Print | Product List | Glossary On
Versions: 1 2 3 4 5 6 7 8 9 10 11 12 13 14 15 16 17 18 19 20 21 22 23 24 25 26 27 28 29 30 31 32 33 34 35 36 37 38 39 40 41 42 43 44 45 46 47 48 49 50
000
ASUS41 KAKQ 270515
RWRAKQ

REGIONAL WEATHER ROUNDUP
NATIONAL WEATHER SERVICE WAKEFIELD VA
100 AM EDT THU AUG 27 2015

Note: "fair" indicates few or no clouds below 12,000 feet with no
significant weather and/or obstructions to visibility. * = Denotes
station may not report precipitation (e.g., rain,snow,etc.),
thunder or fog.

VAZ042-051-052>054-056-270600-
NORTHERN VIRGINIA

CITY           SKY/WX    TMP DP  RH WIND       PRES   REMARKS
WASH NATIONAL  PTCLDY    68  56  65 N6        30.09S
DULLES         PTCLDY    62  55  77 W3        30.10R
FORT BELVOIR   CLEAR     61  58  91 NW1       30.08S
QUANTICO       CLEAR     64  58  80 NW10      30.09S
FREDERICKSBRG* CLEAR     64  61  88 NW3       30.08S
STAFFORD*      CLEAR     62  55  78 N7        30.13S
WARRENTON      CLOUDY    62  61  97 CALM      30.10S
CULPEPER*      CLOUDY    63  58  85 NW3       30.11S
MANASSAS*      CLOUDY    63  61  94 CALM      30.10S
LEESBURG*      CLEAR     63  59  88 CALM      30.11S
WINCHESTER     MOCLDY    59  54  82 CALM      30.11S
FRONT ROYAL*   FAIR      59  54  82 CALM      30.11S
LURAY*         CLOUDY    61  54  77 CALM      30.12F
$$

VAZ048-049-060>072-079>083-270600-
CENTRAL AND SOUTH CENTRAL VIRGINIA

CITY           SKY/WX    TMP DP  RH WIND       PRES   REMARKS
RICHMOND       MOCLDY    69  59  70 N3        30.06F
CHESTERFIELD*  MOCLDY    64  50  59 N3        30.07F
PETERSBURG*    PTCLDY    67  65  93 CALM      30.06S
HANOVER        CLEAR     62  59  90 CALM      30.09R
TAPPAHANNOCK*  PTCLDY    62  59  89 CALM      30.07S
QUINTON*       MOCLDY    65  63  93 CALM      30.06F
CHARLOTTSVILLE PTCLDY    65  56  72 CALM      30.10F
GORDONSVILLE*  FAIR      61  60  95 CALM      30.09S
ORANGE*        MOCLDY    64  57  77 CALM      30.11S
LOUISA*        CLEAR     66  57  72 NE5       30.08S
BUMPASS*       FAIR      62  58  86 CALM      30.09R
FARMVILLE*     MOCLDY    67  60  78 N3        30.07R
CREWE*         FAIR     N/A N/A N/A CALM      30.06F
FORT PICKETT*  CLOUDY    67  61  81 NE6       30.06S
CHASE CITY*    CLOUDY    71  65  82 NE3       30.05F
CLARKSVILLE*   CLOUDY    72  63  73 CALM      30.04F
SOUTH HILL*    CLOUDY    69  63  81 CALM      30.10S
LAWRENCEVILLE* CLOUDY    70  63  78 CALM      30.05S
EMPORIA*       MOCLDY    68  63  83 CALM      30.05F
$$

VAZ088>098-270600-
SOUTHEAST VIRGINIA

CITY           SKY/WX    TMP DP  RH WIND       PRES   REMARKS
NORFOLK        MOCLDY    77  62  59 NE14      30.02F
VIRGINIA BEACH PTCLDY    77  62  59 N10       30.02F
NORFOLK NAVAL  MOCLDY    77  61  57 NE10      30.04F
WEST POINT*    MOCLDY    69  62  77 CALM      30.07F
SALUDA*        CLOUDY    73  61  66 N7        30.05S
NEWPORT NEWS   MOCLDY    73  59  61 NE6       30.03F
LANGLEY AFB    CLOUDY    76  62  63 N7        30.02F
FORT EUSTIS    MOCLDY    73  59  61 VRB2      30.02F
WILLIAMSBURG*  PTCLDY    73  64  73 CALM      30.05F
HR EXEC AP*      N/A     66  63  88 NE3       30.05F
FRANKLIN*      MOCLDY    68  64  86 CALM      30.04S
WAKEFIELD      CLOUDY    71  63  75 CALM      30.04F
$$

VAZ020-022-025-037-045-270600-
WEST CENTRAL AND SOUTHWEST VIRGINIA

CITY           SKY/WX    TMP DP  RH WIND       PRES   REMARKS
STAUNTON*      PTCLDY    65  53  65 CALM      30.14F
WAYNESBORO*    CLOUDY    66  52  62 NW5       30.13S
HOT SPRINGS VA MOCLDY    55  48  76 N3        30.19S
LYNCHBURG      MOCLDY    67  61  81 N7        30.11S
DANVILLE       CLEAR     68  62  81 N6        30.06F
SOUTH BOSTON*  FAIR      66  63  88 N3        30.05F
MARTINSVILLE   CLEAR     62  62  97 N3        30.11S
ROANOKE        CLOUDY    64  54  69 NE3       30.13F
BLACKSBURG     MOCLDY    55  53  94 CALM      30.18S
DUBLIN*        MOCLDY    59  54  83 CALM      30.17S
MARION*        MOCLDY    55  53  93 CALM      30.20F
HILLSVILLE*    PTCLDY    56  52  85 CALM      30.16F
RICHLANDS*     FAIR      56  53  88 CALM      30.18F
WISE*          CLEAR     57  55  94 CALM      30.19F
ABINGDON*      PTCLDY    60  51  70 E5        30.16S
$$

MDZ021>025-VAZ099-100-270600-
SOUTHERN MARYLAND AND THE DELMARVA PENINSULA

CITY           SKY/WX    TMP DP  RH WIND       PRES   REMARKS
PATUXENT RIVER PTCLDY    65  61  87 W5        30.06S
BAY BRIDGE APT   N/A     70  54  56 N5        30.07S
LEONARDTOWN    CLEAR     61  55  82 CALM      30.09R
DOVER          CLEAR     64  58  81 NW7       30.04F
GEORGETOWN     CLEAR     65  56  72 CALM      30.06S
EASTON         NOT AVBL
CAMBRIDGE      CLEAR     61  55  82 CALM      30.06S
SALISBURY      MOCLDY    63  60  90 CALM      30.06R
OCEAN CITY     MOCLDY    68  58  70 NW5       30.05S
WALLOPS ISLAND CLOUDY    72  59  63 N5        30.05F
ACCOMACK*      MOCLDY    66  61  82 N6        30.04F
$$

NCZ012>017-030>032-270600-
NORTH CENTRAL AND EASTERN NORTH CAROLINA

CITY           SKY/WX    TMP DP  RH WIND       PRES   REMARKS
ROANOKE RAPIDS MOCLDY    68  64  88 NE3       30.03F
RALEIGH        MOCLDY    72  65  78 NE6       30.03F
ELIZABETH CITY CLOUDY    74  70  87 N9        30.01F
AHOSKIE*       MOCLDY    69  65  88 CALM      30.03F
EDENTON*       CLOUDY    71  67  88 N3        30.01S
CURRITUCK*     MOCLDY    76  65  68 N8        30.02F
KILL DEVIL HLS CLOUDY    78  67  69 NE8       29.99S
MANTEO         CLOUDY    76  70  82 NE9       30.00S
CAPE HATTERAS  CLOUDY    77  73  87 NE5       29.96F
TARBORO*       CLOUDY    73  66  80 NE5       30.03S
GOLDSBORO      MOCLDY    72  72 100 NE8       29.99S
WASHINGTON     PTCLDY    72  69  90 NE5       30.00S
GREENVILLE     MOCLDY    72  70  94 CALM      30.03S
NEW BERN       PTCLDY    71  70  96 CALM      30.00S
WILMINGTON     MOCLDY    72  70  93 NE5       29.97S
$$

VAZ048-270600-
ELSEWHERE

CITY           SKY/WX    TMP DP  RH WIND       PRES   REMARKS
HARRISBURG PA  PTCLDY    67  56  67 W6        30.08R
BALTIMORE      CLEAR     60  56  86 NW3       30.08S
ANNAPOLIS      CLEAR     69  59  70 N6        30.06F
ANDREWS AFB    CLEAR     60  54  79 CALM      30.07F
PHILADELPHIA   CLEAR     70  53  54 NW8       30.07S
HENDERSON NC   MOCLDY    69  62  79 CALM      30.04F
GREENSBORO     CLEAR     67  62  84 N6        30.05F
ROCKY MOUNT    CLOUDY    74  66  76 NE8       30.03S
$$

VAZ100-270600-
MARINE

STATION/POSITION TIME  TEMP    WIND        PRES    WAVE   SWELL
                       AIR SEA DIR/SP/G            HT/PER HT/PER
                 (UTC) (F)     (DEG/KT/KT) (MB)    (FT/S) (FT/S)
BRANDYWINE LGT   0400   74 75  320/  7/  9   N/A
CAPE MAY NJ      0400   75 80  320/  4/ 15   N/A
LEWES DE         0400   73 74  300/ 10/ 12   N/A
15NM E FENWICK I 0450   76 78  310/ 12/ 14 1017.5R   2/11   2/11
OCEAN-CITY-INLET 0400   73 77  340/  5/  6   N/A
WACHAPREAGUE VA  0400   72 80  340/  4/  5   N/A
GOOSES REEF MD   0500   76 79  340/  8/ 12 1019.0R
COVE POINT MD    0400   72     330/  5/  8   N/A
SOLOMONS ISLAND  0400      81                N/A
BISHOPS HEAD MD  0400   72 79  340/  4/  4   N/A
PINEY POINT MD   0406           10/  6/  7   N/A
POTOMAC MD       0500   74 80  350/  8/ 10 1016.9R   0
CAMBRIDGE MD     0400   71 81  290/  1/  2   N/A
LEWISETTA VA     0400   75 80  360/  4/  5   N/A
RAPPAHANNOCK LGT 0400           20/ 12/ 14   N/A
STINGRAY PT      0500   77 80   10/ 12/ 14 1017.5F   1/ 2
YORK RVR RNG VA  0400   77      10/ 12/ 13   N/A
YORKTOWN VA      0400   76 81   20/  8/ 11   N/A
JAMESTOWN VA     0500   74 82   30/  4/  6   N/A
DOMINION TERM VA 0400   76      30/  5/  7   N/A
KIPTOPEKE VA     0400      80   40/  3/  5   N/A
CHES BAY BRIDGE  0400   77 80  360/ 14/ 16   N/A
CAPE HENRY VA    0400   77      10/ 16/ 17   N/A
CHESAPEAKE LGHT  0400   77      20/ 15/ 17 1017.3S
WILLOUBY STN VA  0400   77      10/ 11/ 13   N/A
CAPE HENRY BUOY  0428      79                N/A     3/11   2/11
1ST LANDING BUOY 0500      79              1016.4F   2/ 3
CAPE CHARLES BUO 0426      79                N/A     3/11   2/11
OFFSHORE WE BUOY 0411      79                N/A     4/11   3/11
64NM E OF VA BCH 0450   78 79   20/ 16/ 17 1015.4F   4/10   3/10
DUCK PIER NC     0400   78 80   30/ 18/ 20   N/A
44100 DUCK FRF   0424      79                N/A     4/ 4   2/11
44056 DUCK FRF   0411      80                N/A     4/10   2/11
OREGON INLET NC  0400   78 81   40/  8/ 10   N/A
HATTERAS NC      0400   80 83   50/  1/  2   N/A
DIAMOND SHLS NC  0450   82 85  240/  6/  6 1014.9F   3/ 9   3/ 9
CAPE LOOKOUT NC  0500   76      20/  5/  5 1014.5F
$$


USA.gov is the U.S. government's official web portal to all federal, state and local government web resources and services.